| time (UTC) | temp C | wind direction | speed KPH | gust KPH | rain 1hr cm | rain 24hr cm | rain mn cm | humidity % | barometer mb |
| 20260510153537 | 25 | 45 | 1.6 | 8.0 | 0.00 | 0.00 | 0.00 | 49 | 1017.0 |
| 20260510152517 | 24 | 0.0 | 4.8 | 0.00 | 0.00 | 0.00 | 49 | 1016.9 | |
| 20260510151537 | 24 | 45 | 1.6 | 4.8 | 0.00 | 0.00 | 0.00 | 50 | 1017.0 |
| 20260510150557 | 23 | 45 | 1.6 | 8.0 | 0.00 | 0.00 | 0.00 | 52 | 1016.9 |
| 20260510145557 | 23 | 0.0 | 3.2 | 0.00 | 0.00 | 0.00 | 57 | 1017.0 | |
| 20260510144517 | 23 | 0.0 | 4.8 | 0.00 | 0.00 | 0.00 | 56 | 1017.1 | |
| 20260510143537 | 22 | 23 | 1.6 | 6.4 | 0.00 | 0.00 | 0.00 | 57 | 1017.1 |
| 20260510142517 | 22 | 23 | 1.6 | 4.8 | 0.00 | 0.00 | 0.00 | 57 | 1017.0 |
| 20260510141657 | 21 | 45 | 1.6 | 8.0 | 0.00 | 0.00 | 0.00 | 65 | 1017.0 |
| 20260510140517 | 21 | 0.0 | 3.2 | 0.00 | 0.00 | 0.00 | 69 | 1016.9 | |
| 20260510135517 | 20 | 0.0 | 6.4 | 0.00 | 0.00 | 0.00 | 72 | 1017.0 | |
| 20260510134517 | 20 | 0.0 | 6.4 | 0.00 | 0.00 | 0.00 | 75 | 1017.0 | |
| 20260510133517 | 18 | 0.0 | 1.6 | 0.00 | 0.00 | 0.00 | 83 | 1016.8 | |
| 20260510132537 | 17 | 0.0 | 4.8 | 0.00 | 0.00 | 0.00 | 90 | 1016.8 | |
| 20260510131516 | 16 | 0.0 | 3.2 | 0.00 | 0.00 | 0.00 | 97 | 1016.8 | |
| 20260510130537 | 16 | 0.0 | 0.0 | 0.00 | 0.00 | 0.00 | 98 | 1016.7 | |
| 20260510125557 | 16 | 45 | 1.6 | 4.8 | 0.00 | 0.00 | 0.00 | 99 | 1016.8 |
| 20260510124516 | 16 | 0.0 | 1.6 | 0.00 | 0.00 | 0.00 | 99 | 1016.7 | |
| 20260510123536 | 15 | 0.0 | 0.0 | 0.00 | 0.00 | 0.00 | 99 | 1016.5 | |
| 20260510122537 | 14 | 0.0 | 0.0 | 0.00 | 0.00 | 0.00 | 99 | 1016.3 | |
| 20260510121617 | 13 | 0.0 | 0.0 | 0.00 | 0.00 | 0.00 | 99 | 1016.2 | |
| 20260510120536 | 13 | 0.0 | 0.0 | 0.00 | 0.00 | 0.00 | 99 | 1015.8 | |
| 20260510115516 | 12 | 0.0 | 0.0 | 0.00 | 0.00 | 0.00 | 98 | 1015.6 | |
| 20260510114516 | 11 | 0.0 | 0.0 | 0.00 | 0.00 | 0.00 | 98 | 1015.4 | |
| 20260510113556 | 11 | 0.0 | 0.0 | 0.00 | 0.00 | 0.00 | 98 | 1015.2 | |
| 20260510112516 | 11 | 0.0 | 0.0 | 0.00 | 0.00 | 0.00 | 98 | 1015.1 | |
| 20260510111616 | 10 | 0.0 | 0.0 | 0.00 | 0.00 | 0.00 | 97 | 1015.1 | |
| 20260510110637 | 10 | 0.0 | 0.0 | 0.00 | 0.00 | 0.00 | 97 | 1014.9 | |
| 20260510105516 | 10 | 0.0 | 0.0 | 0.00 | 0.00 | 0.00 | 97 | 1014.7 | |
| 20260510103536 | 10 | 0.0 | 0.0 | 0.00 | 0.00 | 0.00 | 97 | 1014.4 | |
| 20260510102556 | 10 | 0.0 | 0.0 | 0.00 | 0.00 | 0.00 | 97 | 1014.3 | |
| 20260510101536 | 10 | 0.0 | 0.0 | 0.00 | 0.00 | 0.00 | 97 | 1014.2 | |
| 20260510100516 | 10 | 0.0 | 0.0 | 0.00 | 0.00 | 0.00 | 97 | 1014.0 | |
| 20260510095516 | 11 | 0.0 | 0.0 | 0.00 | 0.00 | 0.00 | 97 | 1013.9 | |
| 20260510094516 | 11 | 0.0 | 0.0 | 0.00 | 0.00 | 0.00 | 97 | 1013.8 | |
| 20260510093516 | 11 | 0.0 | 0.0 | 0.00 | 0.00 | 0.00 | 97 | 1013.7 | |
| 20260510092657 | 11 | 0.0 | 0.0 | 0.00 | 0.00 | 0.00 | 97 | 1013.7 | |
| 20260510091556 | 11 | 0.0 | 0.0 | 0.00 | 0.00 | 0.00 | 97 | 1013.7 | |
| 20260510090536 | 11 | 0.0 | 0.0 | 0.00 | 0.00 | 0.00 | 97 | 1013.9 | |
| 20260510085616 | 12 | 0.0 | 0.0 | 0.00 | 0.00 | 0.00 | 97 | 1013.7 | |
| 20260510084536 | 12 | 0.0 | 0.0 | 0.00 | 0.00 | 0.00 | 97 | 1013.4 | |
| 20260510083556 | 12 | 0.0 | 0.0 | 0.00 | 0.00 | 0.00 | 97 | 1013.4 | |
| 20260510082516 | 11 | 0.0 | 0.0 | 0.00 | 0.00 | 0.00 | 97 | 1013.4 | |
| 20260510081636 | 12 | 0.0 | 0.0 | 0.00 | 0.00 | 0.00 | 97 | 1013.2 | |
| 20260510080536 | 12 | 0.0 | 0.0 | 0.00 | 0.00 | 0.00 | 97 | 1013.1 | |
| 20260510075516 | 12 | 0.0 | 0.0 | 0.00 | 0.00 | 0.00 | 96 | 1013.0 | |
| 20260510074516 | 12 | 0.0 | 0.0 | 0.00 | 0.00 | 0.00 | 97 | 1012.9 | |
| 20260510073516 | 12 | 0.0 | 0.0 | 0.00 | 0.00 | 0.00 | 97 | 1012.9 | |
| 20260510072516 | 12 | 0.0 | 0.0 | 0.00 | 0.00 | 0.00 | 96 | 1012.9 | |
| 20260510071556 | 12 | 0.0 | 0.0 | 0.00 | 0.00 | 0.00 | 96 | 1012.7 | |
| 20260510070516 | 12 | 0.0 | 0.0 | 0.00 | 0.00 | 0.00 | 96 | 1012.7 | |
| 20260510064556 | 12 | 0.0 | 0.0 | 0.00 | 0.00 | 0.00 | 96 | 1012.8 | |
| 20260510063536 | 13 | 0.0 | 0.0 | 0.00 | 0.00 | 0.00 | 96 | 1012.8 | |
| 20260510062556 | 13 | 0.0 | 0.0 | 0.00 | 0.00 | 0.00 | 97 | 1012.8 | |
| 20260510061516 | 13 | 0.0 | 0.0 | 0.00 | 0.00 | 0.00 | 96 | 1012.9 | |
| 20260510060536 | 13 | 0.0 | 0.0 | 0.00 | 0.00 | 0.00 | 96 | 1012.9 | |
| 20260510055516 | 13 | 0.0 | 0.0 | 0.00 | 0.00 | 0.00 | 96 | 1012.9 | |
| 20260510054516 | 13 | 0.0 | 0.0 | 0.00 | 0.00 | 0.00 | 96 | 1012.9 | |
| 20260510053516 | 13 | 0.0 | 0.0 | 0.00 | 0.00 | 0.00 | 97 | 1013.0 | |
| 20260510052516 | 13 | 0.0 | 0.0 | 0.00 | 0.00 | 0.00 | 96 | 1013.2 | |
| 20260510051536 | 13 | 0.0 | 0.0 | 0.00 | 0.00 | 0.00 | 96 | 1013.2 | |
| 20260510050556 | 13 | 0.0 | 0.0 | 0.00 | 0.00 | 0.00 | 96 | 1013.2 | |
| 20260510045516 | 13 | 0.0 | 0.0 | 0.00 | 0.00 | 0.00 | 95 | 1013.2 | |
| 20260510044538 | 13 | 0.0 | 0.0 | 0.00 | 0.00 | 0.00 | 95 | 1013.2 | |
| 20260510043538 | 13 | 0.0 | 0.0 | 0.00 | 0.00 | 0.00 | 95 | 1013.3 | |
| 20260510042658 | 13 | 0.0 | 0.0 | 0.00 | 0.00 | 0.00 | 95 | 1013.2 | |
| 20260510041658 | 14 | 0.0 | 0.0 | 0.00 | 0.00 | 0.00 | 95 | 1013.1 | |
| 20260510040538 | 14 | 0.0 | 0.0 | 0.00 | 0.00 | 0.00 | 95 | 1013.1 | |
| 20260510035516 | 14 | 0.0 | 0.0 | 0.00 | 0.00 | 0.00 | 95 | 1013.0 | |
| 20260510034516 | 14 | 0.0 | 0.0 | 0.00 | 0.00 | 0.00 | 95 | 1013.1 | |
| 20260510033536 | 14 | 0.0 | 0.0 | 0.00 | 0.00 | 0.00 | 95 | 1013.1 | |
| 20260510032536 | 14 | 0.0 | 0.0 | 0.00 | 0.00 | 0.00 | 94 | 1013.1 | |
| 20260510031536 | 15 | 0.0 | 0.0 | 0.00 | 0.00 | 0.00 | 94 | 1013.1 | |
| 20260510030536 | 15 | 0.0 | 0.0 | 0.00 | 0.00 | 0.00 | 94 | 1013.1 | |
| 20260510025556 | 15 | 0.0 | 0.0 | 0.00 | 0.00 | 0.00 | 94 | 1013.0 | |
| 20260510024556 | 15 | 0.0 | 0.0 | 0.00 | 0.00 | 0.00 | 93 | 1013.0 | |
| 20260510023637 | 15 | 0.0 | 0.0 | 0.00 | 0.00 | 0.00 | 93 | 1012.9 | |
| 20260510022516 | 15 | 0.0 | 0.0 | 0.00 | 0.00 | 0.00 | 92 | 1012.9 | |
| 20260510021556 | 15 | 0.0 | 0.0 | 0.00 | 0.00 | 0.00 | 92 | 1012.7 | |
| 20260510020516 | 15 | 0.0 | 0.0 | 0.00 | 0.00 | 0.00 | 92 | 1012.7 | |
| 20260510015516 | 15 | 0.0 | 0.0 | 0.00 | 0.00 | 0.00 | 91 | 1012.6 | |
| 20260510014516 | 16 | 0.0 | 0.0 | 0.00 | 0.00 | 0.00 | 91 | 1012.5 | |
| 20260510013516 | 16 | 0.0 | 0.0 | 0.00 | 0.00 | 0.00 | 91 | 1012.3 | |
| 20260510012656 | 16 | 0.0 | 0.0 | 0.00 | 0.00 | 0.00 | 89 | 1012.1 | |
| 20260510011516 | 16 | 0.0 | 0.0 | 0.00 | 0.00 | 0.00 | 88 | 1011.7 | |
| 20260510010556 | 17 | 0.0 | 0.0 | 0.00 | 0.00 | 0.00 | 89 | 1011.7 | |
| 20260510005536 | 17 | 0.0 | 0.0 | 0.00 | 0.00 | 0.00 | 86 | 1011.5 | |
| 20260510004556 | 17 | 0.0 | 0.0 | 0.00 | 0.00 | 0.00 | 86 | 1011.3 | |
| 20260510003516 | 18 | 0.0 | 0.0 | 0.00 | 0.00 | 0.00 | 85 | 1011.1 | |
| 20260510002656 | 18 | 0.0 | 0.0 | 0.00 | 0.00 | 0.00 | 83 | 1011.1 | |
| 20260510001516 | 19 | 0.0 | 0.0 | 0.00 | 0.00 | 0.00 | 81 | 1011.0 | |
| 20260509235538 | 20 | 0.0 | 0.0 | 0.00 | 0.00 | 0.00 | 79 | 1010.9 | |
| 20260509234518 | 21 | 0.0 | 0.0 | 0.00 | 0.00 | 0.00 | 78 | 1010.8 | |
| 20260509233538 | 21 | 0.0 | 1.6 | 0.00 | 0.00 | 0.00 | 77 | 1010.6 | |
| 20260509232517 | 21 | 0.0 | 4.8 | 0.00 | 0.00 | 0.00 | 76 | 1010.6 | |
| 20260509231517 | 22 | 0.0 | 1.6 | 0.00 | 0.00 | 0.00 | 75 | 1010.3 | |
| 20260509230618 | 22 | 0.0 | 3.2 | 0.00 | 0.00 | 0.00 | 74 | 1010.4 | |
| 20260509225517 | 22 | 293 | 1.6 | 6.4 | 0.00 | 0.00 | 0.00 | 73 | 1010.3 |
| 20260509224517 | 22 | 315 | 1.6 | 9.7 | 0.00 | 0.00 | 0.00 | 71 | 1010.1 |
| 20260509223517 | 23 | 0.0 | 4.8 | 0.00 | 0.00 | 0.00 | 70 | 1010.0 | |
| 20260509222517 | 23 | 0.0 | 3.2 | 0.00 | 0.00 | 0.00 | 70 | 1010.2 | |
| 20260509221558 | 23 | 293 | 1.6 | 9.7 | 0.00 | 0.00 | 0.00 | 68 | 1010.1 |
| 20260509220517 | 23 | 0.0 | 4.8 | 0.00 | 0.00 | 0.00 | 69 | 1010.2 | |
| 20260509215538 | 23 | 315 | 1.6 | 8.0 | 0.00 | 0.00 | 0.00 | 68 | 1010.1 |
| 20260509214557 | 23 | 315 | 1.6 | 8.0 | 0.00 | 0.00 | 0.00 | 68 | 1010.1 |
| 20260509213557 | 24 | 0.0 | 3.2 | 0.00 | 0.00 | 0.00 | 68 | 1010.2 | |
| 20260509212517 | 23 | 0.0 | 3.2 | 0.00 | 0.00 | 0.00 | 70 | 1010.1 | |
| 20260509211517 | 23 | 338 | 1.6 | 8.0 | 0.00 | 0.00 | 0.00 | 69 | 1010.2 |
| 20260509210517 | 24 | 68 | 1.6 | 8.0 | 0.00 | 0.00 | 0.00 | 66 | 1010.1 |
| 20260509205517 | 25 | 0.0 | 3.2 | 0.00 | 0.00 | 0.00 | 69 | 1010.1 | |
| 20260509204557 | 24 | 315 | 1.6 | 4.8 | 0.00 | 0.00 | 0.00 | 70 | 1009.8 |
| 20260509203537 | 23 | 0.0 | 3.2 | 0.00 | 0.00 | 0.00 | 72 | 1010.0 | |
| 20260509202557 | 22 | 135 | 1.6 | 8.0 | 0.00 | 0.00 | 0.00 | 70 | 1010.3 |
| 20260509201517 | 23 | 315 | 1.6 | 6.4 | 0.00 | 0.00 | 0.00 | 68 | 1010.2 |
| 20260509200557 | 23 | 315 | 1.6 | 8.0 | 0.00 | 0.00 | 0.00 | 68 | 1010.3 |
| 20260509195638 | 23 | 293 | 1.6 | 8.0 | 0.00 | 0.00 | 0.00 | 73 | 1010.4 |
| 20260509194557 | 23 | 315 | 1.6 | 8.0 | 0.00 | 0.00 | 0.00 | 72 | 1010.4 |
| 20260509193517 | 22 | 315 | 1.6 | 8.0 | 0.00 | 0.00 | 0.00 | 76 | 1010.5 |
| 20260509192517 | 22 | 315 | 1.6 | 8.0 | 0.00 | 0.00 | 0.00 | 77 | 1010.7 |
| 20260509191557 | 21 | 0.0 | 3.2 | 0.00 | 0.00 | 0.00 | 76 | 1010.7 | |
| 20260509190557 | 21 | 315 | 1.6 | 8.0 | 0.00 | 0.00 | 0.00 | 74 | 1010.7 |
| 20260509185517 | 22 | 0.0 | 1.6 | 0.00 | 0.00 | 0.00 | 72 | 1010.8 | |
| 20260509184517 | 21 | 315 | 1.6 | 4.8 | 0.00 | 0.00 | 0.00 | 73 | 1010.8 |
| 20260509183517 | 22 | 315 | 1.6 | 6.4 | 0.00 | 0.00 | 0.00 | 73 | 1010.7 |
| 20260509182517 | 21 | 0.0 | 3.2 | 0.00 | 0.00 | 0.00 | 74 | 1010.9 | |
| 20260509181517 | 21 | 315 | 1.6 | 8.0 | 0.00 | 0.00 | 0.00 | 75 | 1011.2 |
| 20260509180517 | 21 | 293 | 3.2 | 11.3 | 0.00 | 0.00 | 0.00 | 73 | 1011.2 |
| 20260509175517 | 21 | 315 | 1.6 | 6.4 | 0.00 | 0.00 | 0.00 | 76 | 1011.3 |
| 20260509173557 | 21 | 248 | 1.6 | 6.4 | 0.00 | 0.00 | 0.00 | 73 | 1011.3 |
| 20260509172517 | 21 | 315 | 1.6 | 9.7 | 0.00 | 0.00 | 0.00 | 72 | 1011.3 |
| 20260509171517 | 21 | 293 | 3.2 | 11.3 | 0.00 | 0.00 | 0.00 | 73 | 1011.3 |
| 20260509170537 | 21 | 315 | 1.6 | 6.4 | 0.00 | 0.00 | 0.00 | 74 | 1011.4 |
| 20260509165537 | 21 | 0.0 | 4.8 | 0.00 | 0.00 | 0.00 | 75 | 1011.6 | |
| 20260509164517 | 21 | 0.0 | 4.8 | 0.00 | 0.00 | 0.00 | 77 | 1011.7 | |
| 20260509163517 | 21 | 315 | 1.6 | 6.4 | 0.00 | 0.00 | 0.00 | 78 | 1012.0 |
| 20260509162517 | 21 | 270 | 1.6 | 8.0 | 0.00 | 0.00 | 0.00 | 79 | 1012.3 |
| 20260509161537 | 21 | 315 | 1.6 | 4.8 | 0.00 | 0.00 | 0.00 | 82 | 1012.3 |
| 20260509160557 | 21 | 315 | 1.6 | 9.7 | 0.00 | 0.00 | 0.00 | 79 | 1012.4 |
| 20260509155537 | 20 | 315 | 1.6 | 8.0 | 0.00 | 0.00 | 0.00 | 82 | 1012.5 |
| 20260509154517 | 19 | 315 | 1.6 | 9.7 | 0.00 | 0.00 | 0.00 | 82 | 1012.3 |